Location: Newton_East
(35.6670°N, 81.2000°W)
Time: 17:04:34
(UTC-04:00)

ISS - Visible Passes

Search period start: 22 June 2018 00:00
Search period end: 02 July 2018 00:00
Orbit: 402 x 408 km, 51.6° (Epoch: 23 June)

Date Brightness Start Highest point End Pass type
(mag) Time Alt. Az. Time Alt. Az. Time Alt. Az.
28 Jun -1.0 05:28:09 10° SSE 05:29:20 11° SE 05:30:31 10° ESE visible
30 Jun -2.4 05:18:22 10° SSW 05:21:18 31° SE 05:24:15 10° ENE visible
01 Jul -1.5 04:28:25 14° SSE 04:29:20 15° SE 04:31:18 10° E visible
